RH
100 100 100 86 89 94 100 99 100 100 82 76 90 72 62 72 73 80 94 100 100 100 100 100 68 58 90 100 100 100 85 69 44 42 64 71 84 100 100 100 100 100 100 87 96
100 100 100 100 99 91 92 100 100 100 100 83 98 89 61 70 87 87 74 100 100 100 100 98 98 66 54 64 99 93 100 94 74 56 82 36 47 62 62 100 93 100 99 100 100
80 100 100 100 100 100 100 100 100 100 100 95 100 98 86 65 90 100 100 87 96 100 100 100 100 87 80 61 67 75 68 100 100 92 60 57 44 45 54 56 81 80 79 82 100
60 76 91 100 100 100 100 100 100 100 100 100 100 100 100 92 91 100 100 100 94 79 100 100 100 100 100 100 91 78 81 82 54 100 88 82 56 62 48 58 60 53 62 90 96
22 22 71 100 100 100 100 100 100 100 100 100 97 100 100 100 95 100 100 100 100 94 100 100 99 100 100 100 100 99 89 100 88 99 100 87 72 68 74 78 68 52 70 100 96
10 12 22 81 91 100 100 100 100 100 100 100 100 100 100 100 100 100 100 100 100 100 100 100 100 90 82 100 100 100 100 100 100 86 100 100 100 100 96 79 77 68 57 98 100
9 9 10 12 36 88 100 100 100 100 100 100 100 100 100 100 100 100 100 100 100 100 100 100 100 100 78 91 100 100 100 100 100 100 85 94 86 74 100 99 82 74 100 100 100
10 10 12 15 13 37 100 100 100 100 100 100 100 99 100 100 100 100 100 100 100 100 100 100 100 100 95 89 82 88 97 100 100 100 100 96 99 57 50 86 81 79 92 98 98
11 12 10 14 19 44 98 100 100 100 100 100 100 100 100 100 100 100 100 100 100 100 100 100 100 100 95 80 74 90 100 100 100 100 99 89 99 98 97 86 83 80 75 82 89
11 12 12 12 19 34 59 97 100 100 100 100 100 100 82 100 100 100 100 100 100 100 100 100 100 100 100 97 93 100 100 100 100 100 100 100 95 100 100 100 100 92 73 72 92
12 13 12 15 15 14 39 84 96 100 100 100 100 100 100 100 100 100 100 100 100 100 100 100 100 98 100 100 100 100 98 100 98 100 100 96 84 100 100 100 100 88 56 55 47
15 16 14 15 15 14 14 18 55 92 100 100 100 100 100 100 100 100 100 100 99 97 100 100 99 100 100 100 100 92 86 84 84 98 78 100 98 100 100 100 99 84 79 83 72
20 18 16 14 17 15 17 17 43 100 100 100 100 100 100 100 100 100 100 100 100 99 100 100 97 95 100 100 100 100 100 99 83 94 94 98 100 100 100 100 100 99 92 76 79
22 20 19 15 17 17 18 22 50 74 100 100 100 100 100 100 100 100 100 100 100 100 100 100 96 97 92 100 98 100 84 96 100 100 100 100 100 100 100 100 98 73 63 68 49
25 24 23 23 17 21 21 21 50 75 86 100 100 99 100 100 100 100 100 100 100 100 100 100 100 100 100 100 99 100 100 100 100 100 100 100 100 100 100 100 100 100 94 98 100
25 26 26 33 49 37 33 30 38 52 98 100 100 91 97 100 100 100 100 100 100 100 100 100 100 100 100 100 97 100 98 100 100 100 100 100 100 100 100 100 100 100 100 100 100
26 25 26 29 45 84 55 55 61 70 94 100 100 100 100 100 100 100 100 100 98 98 100 100 100 100 100 100 100 100 100 100 100 100 100 100 100 100 100 99 91 82 90 76 84
25 25 25 25 30 62 100 64 58 83 96 100 100 95 92 100 100 100 100 100 100 100 98 100 100 100 96 95 94 100 100 100 100 100 100 96 100 100 100 99 100 78 77 62 73
28 28 26 24 23 28 62 88 93 77 80 98 100 100 100 100 100 100 100 100 100 100 100 100 94 97 99 84 73 76 79 78 96 91 83 82 93 72 75 84 85 76 72 71 64
30 26 24 23 21 22 26 53 100 100 100 94 83 84 76 76 97 91 100 95 100 99 95 93 77 80 79 82 71 65 61 60 64 67 71 72 70 57 74 79 71 65 64 63 62
31 28 25 22 20 20 22 25 33 82 100 100 100 100 98 85 90 94 94 100 100 100 100 98 99 76 68 87 94 79 68 95 99 97 94 75 78 69 64 59 57 72 63 61 62
35 34 29 24 20 19 20 22 27 31 54 100 100 100 100 100 100 100 97 97 96 96 100 98 96 90 74 82 100 100 90 86 91 96 86 89 97 98 99 78 52 50 51 47 48
38 39 39 36 27 23 21 22 24 27 30 31 34 36 42 58 67 66 80 86 87 92 90 89 92 86 76 76 93 87 72 72 57 59 63 78 100 100 86 74 85 67 56 40 34
48 47 44 46 42 36 30 25 26 26 27 26 28 29 29 29 26 26 26 27 27 27 28 26 28 28 28 27 29 30 40 70 88 96 100 99 100 100 64 74 82 84 70 37 37
59 68 64 56 50 50 42 38 36 38 36 32 32 32 27 26 25 28 29 29 27 26 26 25 25 24 24 24 24 23 22 22 24 24 22 26 23 32 28 25 26 26 28 26 24
70 80 78 62 62 55 52 48 48 48 49 52 48 38 34 38 40 36 36 37 35 37 36 31 29 30 28 29 29 27 30 36 31 28 24 25 26 23 21 21 22 23 18 16 16
69 78 84 74 68 63 55 52 53 51 42 36 36 35 38 44 43 40 36 34 35 38 33 34 34 32 31 36 30 28 35 37 37 35 25 21 21 23 25 24 28 29 25 25 23
Wind_Speed
109 106 106 104 101 98 99 93 89 86 81 81 78 75 73 75 71 68 65 59 55 55 55 52 52 49 47 47 45 48 39 38 33 34 35 35 35 35 39 34 33 31 35 25 24
113 114 113 110 107 105 104 101 97 94 86 84 84 80 78 78 78 73 71 66 64 57 59 58 56 56 54 52 51 51 46 43 43 42 43 40 37 41 39 33 24 25 26 33 32
121 120 118 119 114 113 109 106 101 100 96 87 89 88 82 81 82 78 75 74 70 65 61 57 57 57 57 57 54 55 53 50 46 44 47 48 43 46 49 45 40 34 30 26 29
120 122 126 124 123 118 113 111 105 103 104 93 95 92 86 83 82 81 77 75 74 70 65 64 58 60 59 62 60 61 57 55 54 52 51 51 51 51 49 51 50 44 37 38 41
119 117 122 123 127 124 121 113 109 105 105 102 94 95 94 89 89 82 81 78 76 75 72 69 68 58 60 60 62 64 64 57 57 56 55 50 52 54 52 51 47 45 44 45 44
104 109 114 122 121 116 111 119 108 106 105 102 99 100 98 94 90 85 82 82 79 77 75 73 70 71 66 67 66 62 63 62 64 63 55 54 51 56 59 56 51 46 51 49 47
91 97 100 104 110 109 102 107 105 108 106 103 103 101 98 95 94 91 88 83 83 79 76 73 73 73 75 71 68 63 64 66 69 70 64 61 59 56 56 59 57 54 47 49 50
80 85 84 87 92 97 97 90 96 103 104 103 101 100 102 95 95 94 88 84 85 81 79 78 80 77 73 74 73 68 68 68 69 69 68 64 62 66 62 56 59 57 58 59 60
71 73 74 77 82 92 99 95 87 95 96 98 100 105 101 96 99 97 97 90 86 81 82 81 83 81 80 76 75 74 73 74 74 75 74 68 67 66 65 62 60 61 65 65 65
63 65 66 71 76 80 90 94 85 88 90 90 89 95 98 100 99 97 97 94 93 89 83 82 84 84 81 79 78 78 77 78 79 77 79 78 71 72 70 69 68 67 68 67 68
57 57 58 60 65 69 74 87 89 83 85 86 89 94 92 95 94 95 93 92 91 90 88 87 88 85 84 85 81 80 83 82 81 81 83 82 75 73 75 73 73 74 75 74 77
55 55 52 55 60 64 72 76 85 89 84 86 89 87 88 88 90 94 89 87 93 91 87 88 86 91 85 86 84 84 85 84 83 79 80 81 75 76 75 78 77 77 78 79 80
52 51 51 50 55 60 64 70 74 83 86 88 90 84 83 79 82 79 81 81 89 88 88 88 91 89 87 88 85 83 84 84 85 83 81 83 75 79 81 79 85 82 84 82 82
46 44 46 50 50 56 59 64 69 76 81 85 86 81 79 80 75 75 78 76 81 81 84 88 89 90 91 89 88 87 87 85 85 84 81 80 65 71 69 71 77 86 84 83 83
42 43 41 44 48 51 55 61 68 70 73 76 79 81 79 80 79 77 75 78 77 79 81 84 83 84 86 84 82 83 81 84 85 85 81 80 76 69 70 72 77 76 81 83 85
42 41 38 35 45 46 48 54 61 66 67 69 73 75 80 79 81 79 77 77 75 80 83 78 78 80 80 79 80 82 83 83 82 84 81 83 81 70 73 79 82 83 86 87 89
41 40 38 35 35 49 48 49 51 58 68 69 72 74 75 76 78 77 77 77 76 77 81 79 80 81 81 79 79 81 82 84 85 84 82 87 82 78 77 78 85 89 90 94 97
39 40 40 38 36 39 51 47 46 52 59 64 67 70 70 70 74 78 78 78 79 79 78 81 79 80 79 79 83 84 84 87 88 90 88 85 79 81 80 81 80 87 90 95 97
35 38 39 38 35 32 35 45 47 46 48 56 66 69 67 69 73 74 76 76 79 82 81 85 82 80 78 80 81 82 83 83 88 86 88 85 76 75 78 87 83 87 91 91 96
34 36 35 35 34 31 29 33 54 55 50 49 49 57 61 66 74 73 74 77 78 77 80 81 79 76 76 79 75 81 80 83 82 84 83 81 81 87 82 82 82 80 86 94 97
34 32 29 28 28 28 30 31 28 40 56 57 55 56 57 57 57 62 65 71 72 74 77 77 79 79 81 83 86 87 88 88 90 89 92 91 89 87 90 92 89 94 96 91 91
34 30 26 22 18 20 25 29 30 30 31 42 52 58 61 64 69 70 69 70 75 79 81 83 85 80 85 89 90 93 92 93 92 95 99 98 90 93 93 96 98 98 97 93 96
36 33 28 24 19 17 17 21 27 31 33 34 35 36 37 41 46 51 57 64 73 79 80 83 86 88 89 89 86 88 95 97 98 90 89 91 87 96 96 94 99 97 97 95 93
39 36 33 28 23 22 19 16 16 19 24 29 31 32 33 34 36 38 41 44 46 48 52 55 55 56 58 57 61 61 63 70 77 79 83 79 77 82 82 84 85 86 87 87 88
42 40 37 33 30 28 25 21 18 17 17 18 18 19 20 21 22 25 27 30 31 34 36 37 40 42 44 46 47 49 51 54 58 61 63 65 60 61 73 72 70 72 76 81 83
47 44 41 37 36 33 31 28 27 25 23 23 22 21 21 22 22 24 25 27 30 32 32 34 35 38 38 41 43 42 47 55 58 62 61 63 56 66 70 70 70 74 78 79 83
50 48 44 42 40 37 35 34 33 31 29 28 26 25 26 26 27 28 30 32 33 36 36 39 41 41 42 47 47 46 54 59 62 67 68 66 65 68 69 76 74 76 82 84 86
Wind_Direction
257 255 251 255 254 254 253 255 251 249 252 251 251 252 253 253 252 256 256 256 251 253 247 252 260 259 264 265 271 279 262 259 267 265 269 272 275 279 292 290 298 300 300 290 295
256 255 256 253 253 254 253 253 250 248 247 251 248 252 251 251 253 254 254 254 255 253 251 254 256 259 262 263 262 265 269 263 271 272 265 266 277 277 271 280 275 293 301 302 293
255 251 251 249 250 254 255 254 248 244 247 247 247 247 248 249 252 253 253 254 255 254 252 253 258 257 260 262 261 263 265 268 271 271 267 266 271 279 274 272 278 277 287 292 299
251 251 248 248 249 251 253 252 251 244 244 247 245 247 246 247 249 253 252 253 253 254 257 255 250 256 256 261 261 262 265 265 266 269 268 265 268 278 270 269 274 275 280 285 284
253 248 244 245 248 250 250 249 249 247 243 246 245 247 246 245 246 249 251 251 252 253 255 258 256 246 254 259 262 264 266 261 264 267 263 263 269 271 272 269 271 267 275 280 282
254 249 245 244 246 247 247 248 246 245 243 241 244 244 245 245 245 247 248 250 251 251 254 255 255 255 257 253 261 266 264 264 266 264 262 264 270 273 267 268 270 267 272 278 280
253 251 250 244 241 241 242 244 243 244 242 240 243 245 244 243 244 246 247 247 248 250 250 251 253 257 256 254 256 260 262 265 265 266 263 261 264 271 274 269 272 271 268 275 278
250 249 247 248 241 239 236 238 237 240 241 239 241 244 242 244 245 245 246 247 248 248 247 248 250 254 255 254 256 258 258 263 263 264 262 263 265 265 267 271 270 267 270 272 278
249 250 249 248 243 234 233 233 236 236 239 239 242 242 241 243 244 246 246 248 247 247 246 246 248 252 256 257 257 258 258 258 260 261 262 262 263 267 268 267 267 267 264 268 272
248 249 247 246 243 236 231 230 234 233 236 237 236 240 243 244 242 244 246 246 249 247 245 244 245 249 254 254 253 254 255 257 260 258 263 263 258 263 267 266 267 268 268 270 272
252 249 243 245 244 244 232 230 229 233 232 234 235 239 239 239 239 242 244 246 249 249 249 250 250 249 249 251 251 252 255 258 259 259 262 265 267 264 266 265 266 270 269 268 267
253 253 248 242 243 241 238 234 232 230 230 230 230 231 233 237 238 239 242 244 247 248 250 252 254 249 250 251 254 253 256 257 259 260 264 265 267 268 265 266 265 266 268 266 265
254 255 253 242 243 239 237 235 231 226 228 228 231 232 234 234 237 237 241 244 246 248 249 250 250 250 251 253 255 257 254 259 258 258 262 266 265 265 262 262 267 266 265 267 268
254 256 255 251 243 240 237 234 234 230 229 230 233 233 232 232 235 236 238 241 242 244 247 249 251 250 251 253 257 256 257 254 252 256 259 260 257 261 265 266 264 264 265 266 265
251 256 258 256 248 238 238 236 233 232 232 233 230 228 230 232 232 236 238 239 244 242 242 245 247 247 248 249 250 252 253 255 256 256 254 255 254 251 256 258 258 262 263 264 263
249 252 258 258 250 246 237 236 235 234 232 235 234 234 231 233 235 238 240 239 239 240 241 243 245 245 245 245 248 250 249 252 252 253 252 252 253 253 255 258 261 258 257 259 262
248 249 253 255 250 247 245 234 232 232 231 232 232 234 234 233 234 239 239 235 244 242 242 244 246 245 246 247 248 248 248 249 250 253 254 254 256 257 257 259 257 259 261 260 261
246 245 247 249 249 243 243 245 231 232 229 230 233 236 235 233 235 236 236 241 242 244 243 243 247 247 248 248 247 249 252 252 252 253 255 257 259 259 258 255 256 258 259 260 262
244 245 246 248 249 247 243 244 243 235 228 231 234 234 237 238 237 236 238 240 243 245 246 246 249 246 250 249 251 252 252 256 255 257 259 256 255 260 260 256 256 259 260 260 261
241 242 243 246 247 247 243 238 236 240 240 238 236 237 239 238 237 240 241 244 242 244 247 249 251 253 251 252 257 250 254 255 260 262 259 260 260 259 263 262 258 261 257 258 258
235 235 237 240 241 241 239 236 235 233 236 239 241 243 242 242 240 239 240 245 248 248 253 255 259 257 260 262 262 262 262 266 264 267 267 265 263 265 263 263 261 264 264 260 257
232 232 234 234 233 236 237 235 234 233 230 232 237 238 240 242 243 243 244 245 246 249 250 254 256 257 260 259 259 262 261 262 264 263 264 263 266 266 265 266 268 267 267 264 254
230 231 233 237 238 240 238 231 230 231 231 232 231 233 234 237 241 243 246 248 251 252 255 255 257 259 259 258 258 261 263 264 269 269 266 264 263 261 264 265 265 266 264 264 260
231 231 232 232 234 240 241 237 226 224 225 228 231 232 234 236 238 242 244 244 245 246 247 248 251 255 257 257 257 259 262 262 262 264 264 268 265 269 268 267 268 269 268 267 266
228 228 230 231 230 228 228 226 220 212 209 211 212 215 221 225 226 228 233 237 241 243 246 248 252 256 260 262 262 264 265 265 263 264 265 262 262 260 264 265 265 264 265 267 268
227 227 231 232 230 227 226 223 220 218 213 214 217 219 220 224 227 232 236 242 246 249 252 257 258 261 265 268 271 275 274 271 271 269 267 266 268 265 267 270 271 271 269 269 269
227 229 233 234 232 230 229 226 224 224 225 225 225 229 234 237 240 244 248 254 257 262 264 266 267 268 271 273 273 274 275 276 276 274 274 275 273 271 271 272 272 271 270 269 270